| time (UTC) | temp F | wind direction | speed MPH | gust MPH | rain 1hr in | rain 24hr in | rain mn in | humidity % | barometer mb |
| 20260509090404 | 70 | 261 | 1.0 | 5.0 | 0.00 | 0.00 | 0.00 | 73 | 1018.3 |
| 20260509085904 | 70 | 270 | 2.0 | 5.0 | 0.00 | 0.00 | 0.00 | 75 | 1018.3 |
| 20260509085404 | 70 | 232 | 1.0 | 5.0 | 0.00 | 0.00 | 0.00 | 74 | 1018.4 |
| 20260509084904 | 70 | 231 | 1.0 | 5.0 | 0.00 | 0.00 | 0.00 | 74 | 1018.5 |
| 20260509084406 | 70 | 30 | 0.0 | 3.0 | 0.00 | 0.00 | 0.00 | 72 | 1018.4 |
| 20260509083904 | 70 | 223 | 2.0 | 3.0 | 0.00 | 0.00 | 0.00 | 74 | 1018.5 |
| 20260509083404 | 70 | 240 | 1.0 | 3.0 | 0.00 | 0.00 | 0.00 | 76 | 1018.5 |
| 20260509082906 | 69 | 187 | 1.0 | 3.0 | 0.00 | 0.00 | 0.00 | 74 | 1018.6 |
| 20260509082404 | 70 | 103 | 0.0 | 2.0 | 0.00 | 0.00 | 0.00 | 74 | 1018.5 |
| 20260509081903 | 70 | 248 | 1.0 | 2.0 | 0.00 | 0.00 | 0.00 | 74 | 1018.6 |
| 20260509081405 | 69 | 322 | 0.0 | 3.0 | 0.00 | 0.00 | 0.00 | 76 | 1018.6 |
| 20260509080903 | 68 | 202 | 1.0 | 3.0 | 0.00 | 0.00 | 0.00 | 79 | 1018.6 |
| 20260509080403 | 67 | 219 | 1.0 | 3.0 | 0.00 | 0.00 | 0.00 | 79 | 1018.7 |
| 20260509075904 | 66 | 259 | 1.0 | 3.0 | 0.00 | 0.00 | 0.00 | 79 | 1018.7 |
| 20260509074404 | 65 | 283 | 0.0 | 2.0 | 0.00 | 0.00 | 0.00 | 82 | 1018.7 |
| 20260509073904 | 65 | 356 | 0.0 | 2.0 | 0.00 | 0.00 | 0.00 | 83 | 1018.7 |
| 20260509073404 | 64 | 46 | 1.0 | 2.0 | 0.00 | 0.00 | 0.00 | 84 | 1018.7 |
| 20260509072906 | 64 | 7 | 1.0 | 2.0 | 0.00 | 0.00 | 0.00 | 86 | 1018.6 |
| 20260509072404 | 64 | 324 | 0.0 | 2.0 | 0.00 | 0.00 | 0.00 | 85 | 1018.7 |
| 20260509071904 | 63 | 251 | 0.0 | 1.0 | 0.00 | 0.00 | 0.00 | 86 | 1018.8 |
| 20260509071406 | 63 | 245 | 0.0 | 1.0 | 0.00 | 0.00 | 0.00 | 86 | 1018.9 |
| 20260509070904 | 63 | 245 | 0.0 | 1.0 | 0.00 | 0.00 | 0.00 | 86 | 1018.9 |
| 20260509070405 | 62 | 212 | 0.0 | 2.0 | 0.00 | 0.00 | 0.00 | 87 | 1018.9 |
| 20260509065904 | 62 | 198 | 1.0 | 2.0 | 0.00 | 0.00 | 0.00 | 88 | 1018.9 |
| 20260509064904 | 62 | 177 | 0.0 | 1.0 | 0.00 | 0.00 | 0.00 | 89 | 1018.9 |
| 20260509064403 | 59 | 173 | 0.0 | 0.0 | 0.00 | 0.00 | 0.00 | 89 | 1018.9 |
| 20260509063405 | 57 | 0 | 0.0 | 0.0 | 0.00 | 0.00 | 0.00 | 88 | 1018.8 |
| 20260509062903 | 57 | 0 | 0.0 | 0.0 | 0.00 | 0.00 | 0.00 | 88 | 1018.9 |
| 20260509062404 | 57 | 0 | 0.0 | 0.0 | 0.00 | 0.00 | 0.00 | 88 | 1018.8 |
| 20260509061904 | 57 | 0 | 0.0 | 0.0 | 0.00 | 0.00 | 0.00 | 88 | 1018.8 |
| 20260509061406 | 57 | 0 | 0.0 | 0.0 | 0.00 | 0.00 | 0.00 | 88 | 1018.8 |
| 20260509060903 | 57 | 0 | 0.0 | 0.0 | 0.00 | 0.00 | 0.00 | 88 | 1018.9 |
| 20260509060404 | 57 | 0 | 0.0 | 0.0 | 0.00 | 0.00 | 0.00 | 88 | 1018.8 |
| 20260509055903 | 57 | 0 | 0.0 | 0.0 | 0.00 | 0.00 | 0.00 | 88 | 1018.8 |
| 20260509055405 | 57 | 0 | 0.0 | 0.0 | 0.00 | 0.00 | 0.00 | 88 | 1018.8 |
| 20260509054904 | 57 | 0 | 0.0 | 0.0 | 0.00 | 0.00 | 0.00 | 88 | 1018.7 |
| 20260509054403 | 57 | 0 | 0.0 | 0.0 | 0.00 | 0.00 | 0.00 | 88 | 1018.6 |
| 20260509053903 | 57 | 0 | 0.0 | 0.0 | 0.00 | 0.00 | 0.00 | 88 | 1018.5 |
| 20260509053405 | 57 | 0 | 0.0 | 0.0 | 0.00 | 0.00 | 0.00 | 88 | 1018.6 |
| 20260509051904 | 57 | 0 | 0.0 | 0.0 | 0.00 | 0.00 | 0.00 | 88 | 1018.5 |
| 20260509050405 | 57 | 0 | 0.0 | 0.0 | 0.00 | 0.00 | 0.00 | 88 | 1018.5 |
| 20260509045903 | 57 | 0 | 0.0 | 0.0 | 0.00 | 0.00 | 0.00 | 88 | 1018.3 |
| 20260509045404 | 57 | 0 | 0.0 | 0.0 | 0.00 | 0.00 | 0.00 | 88 | 1018.5 |
| 20260509044905 | 57 | 0 | 0.0 | 0.0 | 0.00 | 0.00 | 0.00 | 88 | 1018.5 |
| 20260509044404 | 57 | 0 | 0.0 | 0.0 | 0.00 | 0.00 | 0.00 | 88 | 1018.4 |
| 20260509043904 | 57 | 0 | 0.0 | 0.0 | 0.00 | 0.00 | 0.00 | 88 | 1018.3 |
| 20260509043404 | 57 | 0 | 0.0 | 0.0 | 0.00 | 0.00 | 0.00 | 88 | 1018.2 |
| 20260509042406 | 57 | 0 | 0.0 | 0.0 | 0.00 | 0.00 | 0.00 | 88 | 1018.2 |
| 20260509041404 | 57 | 0 | 0.0 | 0.0 | 0.00 | 0.00 | 0.00 | 88 | 1018.2 |
| 20260509040903 | 57 | 0 | 0.0 | 0.0 | 0.00 | 0.00 | 0.00 | 88 | 1018.2 |
| 20260509040405 | 57 | 0 | 0.0 | 0.0 | 0.00 | 0.00 | 0.00 | 88 | 1018.2 |
| 20260509035405 | 57 | 0 | 0.0 | 0.0 | 0.00 | 0.00 | 0.00 | 88 | 1018.3 |
| 20260509034905 | 57 | 0 | 0.0 | 0.0 | 0.00 | 0.00 | 0.00 | 88 | 1018.3 |
| 20260509034403 | 57 | 0 | 0.0 | 0.0 | 0.00 | 0.00 | 0.00 | 88 | 1018.3 |
| 20260509033903 | 57 | 0 | 0.0 | 0.0 | 0.00 | 0.00 | 0.00 | 88 | 1018.4 |
| 20260509032904 | 57 | 0 | 0.0 | 0.0 | 0.00 | 0.00 | 0.00 | 88 | 1018.3 |
| 20260509031903 | 57 | 0 | 0.0 | 0.0 | 0.00 | 0.00 | 0.00 | 88 | 1018.2 |
| 20260509031405 | 57 | 0 | 0.0 | 0.0 | 0.00 | 0.00 | 0.00 | 88 | 1018.2 |
| 20260509030905 | 57 | 0 | 0.0 | 0.0 | 0.00 | 0.00 | 0.00 | 88 | 1018.2 |
| 20260509030404 | 57 | 0 | 0.0 | 0.0 | 0.00 | 0.00 | 0.00 | 88 | 1018.3 |
| 20260509025905 | 57 | 0 | 0.0 | 0.0 | 0.00 | 0.00 | 0.00 | 88 | 1018.3 |
| 20260509025414 | 57 | 0 | 0.0 | 0.0 | 0.00 | 0.00 | 0.00 | 88 | 1018.3 |
| 20260509024903 | 57 | 0 | 0.0 | 0.0 | 0.00 | 0.00 | 0.00 | 88 | 1018.3 |
| 20260509024405 | 57 | 0 | 0.0 | 0.0 | 0.00 | 0.00 | 0.00 | 88 | 1018.2 |
| 20260509023903 | 57 | 0 | 0.0 | 0.0 | 0.00 | 0.00 | 0.00 | 88 | 1018.3 |
| 20260509023403 | 57 | 0 | 0.0 | 0.0 | 0.00 | 0.00 | 0.00 | 88 | 1018.2 |
| 20260509022903 | 57 | 0 | 0.0 | 0.0 | 0.00 | 0.00 | 0.00 | 88 | 1018.3 |
| 20260509022404 | 57 | 0 | 0.0 | 0.0 | 0.00 | 0.00 | 0.00 | 88 | 1018.4 |
| 20260509021405 | 57 | 0 | 0.0 | 0.0 | 0.00 | 0.00 | 0.00 | 88 | 1018.4 |
| 20260509015905 | 57 | 0 | 0.0 | 0.0 | 0.00 | 0.00 | 0.00 | 88 | 1018.3 |
| 20260509015405 | 57 | 0 | 0.0 | 0.0 | 0.00 | 0.00 | 0.00 | 88 | 1018.3 |
| 20260509014406 | 57 | 0 | 0.0 | 0.0 | 0.00 | 0.00 | 0.00 | 88 | 1018.3 |
| 20260509013905 | 57 | 0 | 0.0 | 0.0 | 0.00 | 0.00 | 0.00 | 88 | 1018.3 |
| 20260509013404 | 57 | 0 | 0.0 | 0.0 | 0.00 | 0.00 | 0.00 | 88 | 1018.4 |
| 20260509012904 | 57 | 0 | 0.0 | 0.0 | 0.00 | 0.00 | 0.00 | 88 | 1018.4 |
| 20260509012405 | 57 | 0 | 0.0 | 0.0 | 0.00 | 0.00 | 0.00 | 88 | 1018.5 |
| 20260509011903 | 57 | 0 | 0.0 | 0.0 | 0.00 | 0.00 | 0.00 | 88 | 1018.5 |
| 20260509010907 | 57 | 0 | 0.0 | 0.0 | 0.00 | 0.00 | 0.00 | 88 | 1018.5 |
| 20260509010404 | 57 | 0 | 0.0 | 0.0 | 0.00 | 0.00 | 0.00 | 88 | 1018.6 |
| 20260509005904 | 57 | 0 | 0.0 | 0.0 | 0.00 | 0.00 | 0.00 | 88 | 1018.5 |
| 20260509004903 | 57 | 0 | 0.0 | 0.0 | 0.00 | 0.00 | 0.00 | 88 | 1018.5 |
| 20260509004406 | 57 | 0 | 0.0 | 0.0 | 0.00 | 0.00 | 0.00 | 88 | 1018.5 |
| 20260509003904 | 57 | 0 | 0.0 | 0.0 | 0.00 | 0.00 | 0.00 | 88 | 1018.6 |
| 20260509002905 | 57 | 0 | 0.0 | 0.0 | 0.00 | 0.00 | 0.00 | 88 | 1018.7 |
| 20260509002404 | 57 | 0 | 0.0 | 0.0 | 0.00 | 0.00 | 0.00 | 88 | 1018.8 |
| 20260509001904 | 57 | 0 | 0.0 | 0.0 | 0.00 | 0.00 | 0.00 | 88 | 1018.7 |
| 20260509001404 | 57 | 0 | 0.0 | 0.0 | 0.00 | 0.00 | 0.00 | 88 | 1018.9 |
| 20260509000903 | 57 | 0 | 0.0 | 0.0 | 0.00 | 0.00 | 0.00 | 88 | 1018.9 |
| 20260509000405 | 57 | 0 | 0.0 | 0.0 | 0.00 | 0.00 | 0.00 | 88 | 1019.0 |
| 20260508235404 | 57 | 0 | 0.0 | 0.0 | 0.00 | 0.00 | 0.00 | 88 | 1019.1 |
| 20260508234904 | 57 | 0 | 0.0 | 0.0 | 0.00 | 0.00 | 0.00 | 88 | 1019.1 |
| 20260508234406 | 57 | 0 | 0.0 | 0.0 | 0.00 | 0.00 | 0.00 | 88 | 1019.1 |
| 20260508233904 | 57 | 0 | 0.0 | 0.0 | 0.00 | 0.00 | 0.00 | 88 | 1019.2 |
| 20260508233404 | 57 | 0 | 0.0 | 0.0 | 0.00 | 0.00 | 0.00 | 88 | 1019.0 |
| 20260508232903 | 57 | 0 | 0.0 | 0.0 | 0.00 | 0.00 | 0.00 | 88 | 1019.1 |
| 20260508232406 | 57 | 0 | 0.0 | 0.0 | 0.00 | 0.00 | 0.00 | 88 | 1019.1 |
| 20260508231904 | 57 | 0 | 0.0 | 0.0 | 0.00 | 0.00 | 0.00 | 88 | 1019.1 |
| 20260508231404 | 57 | 0 | 0.0 | 0.0 | 0.00 | 0.00 | 0.00 | 88 | 1019.2 |
| 20260508230904 | 57 | 0 | 0.0 | 0.0 | 0.00 | 0.00 | 0.00 | 88 | 1019.2 |
| 20260508230405 | 57 | 0 | 0.0 | 0.0 | 0.00 | 0.00 | 0.00 | 88 | 1019.3 |
| 20260508225904 | 57 | 0 | 0.0 | 0.0 | 0.00 | 0.00 | 0.00 | 88 | 1019.4 |
| 20260508225404 | 57 | 0 | 0.0 | 0.0 | 0.00 | 0.00 | 0.00 | 88 | 1019.4 |
| 20260508224905 | 57 | 0 | 0.0 | 0.0 | 0.00 | 0.00 | 0.00 | 88 | 1019.4 |
| 20260508224404 | 57 | 0 | 0.0 | 0.0 | 0.00 | 0.00 | 0.00 | 88 | 1019.4 |
| 20260508223904 | 57 | 0 | 0.0 | 0.0 | 0.00 | 0.00 | 0.00 | 88 | 1019.4 |
| 20260508223404 | 57 | 0 | 0.0 | 0.0 | 0.00 | 0.00 | 0.00 | 88 | 1019.4 |
| 20260508222904 | 57 | 0 | 0.0 | 0.0 | 0.00 | 0.00 | 0.00 | 88 | 1019.5 |
| 20260508222405 | 57 | 0 | 0.0 | 0.0 | 0.00 | 0.00 | 0.00 | 88 | 1019.5 |
| 20260508221903 | 57 | 0 | 0.0 | 0.0 | 0.00 | 0.00 | 0.00 | 88 | 1019.6 |
| 20260508221404 | 57 | 0 | 0.0 | 0.0 | 0.00 | 0.00 | 0.00 | 88 | 1019.7 |
| 20260508220903 | 57 | 0 | 0.0 | 0.0 | 0.00 | 0.00 | 0.00 | 88 | 1019.8 |
| 20260508220403 | 57 | 0 | 0.0 | 0.0 | 0.00 | 0.00 | 0.00 | 88 | 1019.7 |
| 20260508215904 | 57 | 0 | 0.0 | 0.0 | 0.00 | 0.00 | 0.00 | 88 | 1019.8 |
| 20260508215403 | 57 | 0 | 0.0 | 0.0 | 0.00 | 0.00 | 0.00 | 88 | 1019.6 |
| 20260508214905 | 57 | 0 | 0.0 | 0.0 | 0.00 | 0.00 | 0.00 | 88 | 1019.6 |
| 20260508214403 | 57 | 0 | 0.0 | 0.0 | 0.00 | 0.00 | 0.00 | 88 | 1019.7 |
| 20260508213903 | 57 | 0 | 0.0 | 0.0 | 0.00 | 0.00 | 0.00 | 88 | 1019.8 |
| 20260508213403 | 57 | 0 | 0.0 | 0.0 | 0.00 | 0.00 | 0.00 | 88 | 1019.7 |
| 20260508212906 | 57 | 0 | 0.0 | 0.0 | 0.00 | 0.00 | 0.00 | 88 | 1019.7 |
| 20260508212405 | 57 | 0 | 0.0 | 0.0 | 0.00 | 0.00 | 0.00 | 88 | 1019.8 |
| 20260508211904 | 57 | 0 | 0.0 | 0.0 | 0.00 | 0.00 | 0.00 | 88 | 1019.8 |
| 20260508211405 | 57 | 0 | 0.0 | 0.0 | 0.00 | 0.00 | 0.00 | 88 | 1019.9 |
| 20260508210903 | 57 | 0 | 0.0 | 0.0 | 0.00 | 0.00 | 0.00 | 88 | 1019.9 |
| 20260508210404 | 57 | 0 | 0.0 | 0.0 | 0.00 | 0.00 | 0.00 | 88 | 1019.9 |
| 20260508205405 | 57 | 0 | 0.0 | 0.0 | 0.00 | 0.00 | 0.00 | 88 | 1020.0 |
| 20260508204903 | 57 | 0 | 0.0 | 0.0 | 0.00 | 0.00 | 0.00 | 88 | 1020.0 |
| 20260508204404 | 57 | 0 | 0.0 | 0.0 | 0.00 | 0.00 | 0.00 | 88 | 1019.9 |
| 20260508203904 | 57 | 0 | 0.0 | 0.0 | 0.00 | 0.00 | 0.00 | 88 | 1019.9 |
| 20260508203403 | 57 | 0 | 0.0 | 0.0 | 0.00 | 0.00 | 0.00 | 88 | 1019.8 |
| 20260508202905 | 57 | 0 | 0.0 | 0.0 | 0.00 | 0.00 | 0.00 | 88 | 1019.9 |
| 20260508202403 | 57 | 0 | 0.0 | 0.0 | 0.00 | 0.00 | 0.00 | 88 | 1019.8 |
| 20260508201904 | 57 | 0 | 0.0 | 0.0 | 0.00 | 0.00 | 0.00 | 88 | 1019.8 |
| 20260508200904 | 57 | 0 | 0.0 | 0.0 | 0.00 | 0.00 | 0.00 | 88 | 1020.0 |
| 20260508195405 | 57 | 0 | 0.0 | 0.0 | 0.00 | 0.00 | 0.00 | 88 | 1020.0 |
| 20260508194903 | 57 | 0 | 0.0 | 0.0 | 0.00 | 0.00 | 0.00 | 88 | 1019.9 |
| 20260508194404 | 57 | 0 | 0.0 | 0.0 | 0.00 | 0.00 | 0.00 | 88 | 1020.1 |
| 20260508193903 | 57 | 0 | 0.0 | 0.0 | 0.00 | 0.00 | 0.00 | 88 | 1019.9 |
| 20260508193405 | 57 | 0 | 0.0 | 0.0 | 0.00 | 0.00 | 0.00 | 88 | 1019.7 |
| 20260508192903 | 57 | 0 | 0.0 | 0.0 | 0.00 | 0.00 | 0.00 | 88 | 1019.6 |
| 20260508192405 | 57 | 0 | 0.0 | 0.0 | 0.00 | 0.00 | 0.00 | 88 | 1019.7 |
| 20260508191904 | 57 | 0 | 0.0 | 0.0 | 0.00 | 0.00 | 0.00 | 88 | 1019.6 |
| 20260508191404 | 57 | 0 | 0.0 | 0.0 | 0.00 | 0.00 | 0.00 | 88 | 1019.6 |
| 20260508190904 | 57 | 0 | 0.0 | 0.0 | 0.00 | 0.00 | 0.00 | 88 | 1019.7 |
| 20260508190404 | 57 | 0 | 0.0 | 0.0 | 0.00 | 0.00 | 0.00 | 88 | 1019.6 |
| 20260508185903 | 57 | 0 | 0.0 | 0.0 | 0.00 | 0.00 | 0.00 | 88 | 1019.5 |
| 20260508185403 | 57 | 0 | 0.0 | 0.0 | 0.00 | 0.00 | 0.00 | 88 | 1019.5 |
| 20260508184903 | 57 | 0 | 0.0 | 0.0 | 0.00 | 0.00 | 0.00 | 88 | 1019.3 |
| 20260508184403 | 57 | 0 | 0.0 | 0.0 | 0.00 | 0.00 | 0.00 | 88 | 1019.3 |
| 20260508183903 | 57 | 0 | 0.0 | 0.0 | 0.00 | 0.00 | 0.00 | 88 | 1019.3 |
| 20260508183404 | 57 | 0 | 0.0 | 0.0 | 0.00 | 0.00 | 0.00 | 88 | 1019.2 |
| 20260508182904 | 57 | 0 | 0.0 | 0.0 | 0.00 | 0.00 | 0.00 | 88 | 1019.3 |
| 20260508181904 | 57 | 0 | 0.0 | 0.0 | 0.00 | 0.00 | 0.00 | 88 | 1019.1 |
| 20260508181407 | 57 | 0 | 0.0 | 0.0 | 0.00 | 0.00 | 0.00 | 88 | 1019.0 |
| 20260508175904 | 57 | 0 | 0.0 | 0.0 | 0.00 | 0.00 | 0.00 | 88 | 1018.9 |
| 20260508175405 | 57 | 0 | 0.0 | 0.0 | 0.00 | 0.00 | 0.00 | 88 | 1018.7 |
| 20260508174905 | 57 | 0 | 0.0 | 0.0 | 0.00 | 0.00 | 0.00 | 88 | 1018.6 |
| 20260508173904 | 57 | 0 | 0.0 | 0.0 | 0.00 | 0.00 | 0.00 | 88 | 1018.7 |
| 20260508173404 | 57 | 0 | 0.0 | 0.0 | 0.00 | 0.00 | 0.00 | 88 | 1018.6 |
| 20260508172905 | 57 | 0 | 0.0 | 0.0 | 0.00 | 0.00 | 0.00 | 88 | 1018.6 |
| 20260508172403 | 57 | 0 | 0.0 | 0.0 | 0.00 | 0.00 | 0.00 | 88 | 1018.6 |
| 20260508171904 | 57 | 0 | 0.0 | 0.0 | 0.00 | 0.00 | 0.00 | 88 | 1018.6 |
| 20260508171404 | 57 | 0 | 0.0 | 0.0 | 0.00 | 0.00 | 0.00 | 88 | 1018.6 |
| 20260508170904 | 57 | 0 | 0.0 | 0.0 | 0.00 | 0.00 | 0.00 | 88 | 1018.4 |
| 20260508170404 | 57 | 0 | 0.0 | 0.0 | 0.00 | 0.00 | 0.00 | 88 | 1018.5 |
| 20260508164903 | 57 | 0 | 0.0 | 0.0 | 0.00 | 0.00 | 0.00 | 88 | 1018.5 |
| 20260508164404 | 57 | 0 | 0.0 | 0.0 | 0.00 | 0.00 | 0.00 | 88 | 1018.5 |
| 20260508163905 | 57 | 0 | 0.0 | 0.0 | 0.00 | 0.00 | 0.00 | 88 | 1018.6 |
| 20260508163405 | 57 | 0 | 0.0 | 0.0 | 0.00 | 0.00 | 0.00 | 88 | 1018.7 |
| 20260508162405 | 57 | 0 | 0.0 | 0.0 | 0.00 | 0.00 | 0.00 | 88 | 1018.5 |
| 20260508161906 | 57 | 0 | 0.0 | 0.0 | 0.00 | 0.00 | 0.00 | 88 | 1018.4 |
| 20260508161404 | 57 | 0 | 0.0 | 0.0 | 0.00 | 0.00 | 0.00 | 88 | 1018.5 |
| 20260508160904 | 57 | 0 | 0.0 | 0.0 | 0.00 | 0.00 | 0.00 | 88 | 1018.6 |
| 20260508155904 | 57 | 0 | 0.0 | 0.0 | 0.00 | 0.00 | 0.00 | 88 | 1018.6 |
| 20260508155404 | 57 | 0 | 0.0 | 0.0 | 0.00 | 0.00 | 0.00 | 88 | 1018.3 |
| 20260508154905 | 57 | 0 | 0.0 | 0.0 | 0.00 | 0.00 | 0.00 | 88 | 1018.4 |
| 20260508154403 | 57 | 0 | 0.0 | 0.0 | 0.00 | 0.00 | 0.00 | 88 | 1018.6 |
| 20260508153904 | 57 | 0 | 0.0 | 0.0 | 0.00 | 0.00 | 0.00 | 88 | 1018.6 |
| 20260508153403 | 57 | 0 | 0.0 | 0.0 | 0.00 | 0.00 | 0.00 | 88 | 1018.5 |
| 20260508152903 | 57 | 0 | 0.0 | 0.0 | 0.00 | 0.00 | 0.00 | 88 | 1018.4 |
| 20260508152403 | 57 | 0 | 0.0 | 0.0 | 0.00 | 0.00 | 0.00 | 88 | 1018.5 |
| 20260508151903 | 57 | 0 | 0.0 | 0.0 | 0.00 | 0.00 | 0.00 | 88 | 1018.5 |
| 20260508151403 | 57 | 0 | 0.0 | 0.0 | 0.00 | 0.00 | 0.00 | 88 | 1018.6 |
| 20260508150404 | 57 | 0 | 0.0 | 0.0 | 0.00 | 0.00 | 0.00 | 88 | 1018.5 |
| 20260508145903 | 57 | 0 | 0.0 | 0.0 | 0.00 | 0.00 | 0.00 | 88 | 1018.5 |
| 20260508145405 | 57 | 0 | 0.0 | 0.0 | 0.00 | 0.00 | 0.00 | 88 | 1018.7 |
| 20260508144905 | 57 | 0 | 0.0 | 0.0 | 0.00 | 0.00 | 0.00 | 88 | 1018.9 |
| 20260508144404 | 57 | 0 | 0.0 | 0.0 | 0.00 | 0.00 | 0.00 | 88 | 1018.7 |
| 20260508143904 | 57 | 0 | 0.0 | 0.0 | 0.00 | 0.00 | 0.00 | 88 | 1018.5 |
| 20260508142904 | 57 | 0 | 0.0 | 0.0 | 0.00 | 0.00 | 0.00 | 88 | 1018.6 |
| 20260508142405 | 57 | 0 | 0.0 | 0.0 | 0.00 | 0.00 | 0.00 | 88 | 1018.7 |
| 20260508141906 | 57 | 0 | 0.0 | 0.0 | 0.00 | 0.00 | 0.00 | 88 | 1018.7 |
| 20260508141403 | 57 | 0 | 0.0 | 0.0 | 0.00 | 0.00 | 0.00 | 88 | 1018.4 |
| 20260508140903 | 57 | 0 | 0.0 | 0.0 | 0.00 | 0.00 | 0.00 | 88 | 1018.4 |
| 20260508135404 | 57 | 0 | 0.0 | 0.0 | 0.00 | 0.00 | 0.00 | 88 | 1018.7 |
| 20260508134904 | 57 | 0 | 0.0 | 0.0 | 0.00 | 0.00 | 0.00 | 88 | 1018.8 |
| 20260508134404 | 57 | 0 | 0.0 | 0.0 | 0.00 | 0.00 | 0.00 | 88 | 1018.8 |
| 20260508133403 | 57 | 0 | 0.0 | 0.0 | 0.00 | 0.00 | 0.00 | 88 | 1018.9 |
| 20260508132903 | 57 | 0 | 0.0 | 0.0 | 0.00 | 0.00 | 0.00 | 88 | 1018.8 |
| 20260508132405 | 57 | 0 | 0.0 | 0.0 | 0.00 | 0.00 | 0.00 | 88 | 1018.9 |
| 20260508131905 | 57 | 0 | 0.0 | 0.0 | 0.00 | 0.00 | 0.00 | 88 | 1018.9 |
| 20260508131404 | 57 | 0 | 0.0 | 0.0 | 0.00 | 0.00 | 0.00 | 88 | 1019.0 |
| 20260508125905 | 57 | 0 | 0.0 | 0.0 | 0.00 | 0.00 | 0.00 | 88 | 1019.1 |
| 20260508125405 | 57 | 0 | 0.0 | 0.0 | 0.00 | 0.00 | 0.00 | 88 | 1019.1 |
| 20260508124904 | 57 | 0 | 0.0 | 0.0 | 0.00 | 0.00 | 0.00 | 88 | 1019.3 |
| 20260508124404 | 57 | 0 | 0.0 | 0.0 | 0.00 | 0.00 | 0.00 | 88 | 1019.3 |
| 20260508123904 | 57 | 0 | 0.0 | 0.0 | 0.00 | 0.00 | 0.00 | 88 | 1019.4 |
| 20260508123404 | 57 | 0 | 0.0 | 0.0 | 0.00 | 0.00 | 0.00 | 88 | 1019.4 |
| 20260508122404 | 57 | 0 | 0.0 | 0.0 | 0.00 | 0.00 | 0.00 | 88 | 1019.5 |
| 20260508121905 | 57 | 0 | 0.0 | 0.0 | 0.00 | 0.00 | 0.00 | 88 | 1019.6 |
| 20260508121404 | 57 | 0 | 0.0 | 0.0 | 0.00 | 0.00 | 0.00 | 88 | 1019.4 |
| 20260508120904 | 57 | 0 | 0.0 | 0.0 | 0.00 | 0.00 | 0.00 | 88 | 1019.6 |
| 20260508120405 | 57 | 0 | 0.0 | 0.0 | 0.00 | 0.00 | 0.00 | 88 | 1019.8 |
| 20260508115904 | 57 | 0 | 0.0 | 0.0 | 0.00 | 0.00 | 0.00 | 88 | 1019.8 |
| 20260508115404 | 57 | 0 | 0.0 | 0.0 | 0.00 | 0.00 | 0.00 | 88 | 1019.7 |
| 20260508113903 | 57 | 0 | 0.0 | 0.0 | 0.00 | 0.00 | 0.00 | 88 | 1020.2 |
| 20260508112904 | 57 | 0 | 0.0 | 0.0 | 0.00 | 0.00 | 0.00 | 88 | 1020.3 |
| 20260508112404 | 57 | 0 | 0.0 | 0.0 | 0.00 | 0.00 | 0.00 | 88 | 1020.5 |
| 20260508111905 | 57 | 0 | 0.0 | 0.0 | 0.00 | 0.00 | 0.00 | 88 | 1020.5 |
| 20260508111404 | 57 | 0 | 0.0 | 0.0 | 0.00 | 0.00 | 0.00 | 88 | 1020.5 |
| 20260508110904 | 57 | 0 | 0.0 | 0.0 | 0.00 | 0.00 | 0.00 | 88 | 1020.6 |
| 20260508110403 | 57 | 0 | 0.0 | 0.0 | 0.00 | 0.00 | 0.00 | 88 | 1020.7 |
| 20260508105905 | 57 | 0 | 0.0 | 0.0 | 0.00 | 0.00 | 0.00 | 88 | 1020.7 |
| 20260508105404 | 57 | 0 | 0.0 | 0.0 | 0.00 | 0.00 | 0.00 | 88 | 1020.8 |
| 20260508104904 | 57 | 0 | 0.0 | 0.0 | 0.00 | 0.01 | 0.00 | 88 | 1021.0 |
| 20260508104405 | 57 | 0 | 0.0 | 0.0 | 0.00 | 0.01 | 0.00 | 88 | 1020.9 |
| 20260508103905 | 57 | 0 | 0.0 | 0.0 | 0.00 | 0.01 | 0.00 | 88 | 1020.9 |
| 20260508102403 | 57 | 0 | 0.0 | 0.0 | 0.00 | 0.01 | 0.00 | 88 | 1021.2 |
| 20260508100904 | 57 | 0 | 0.0 | 0.0 | 0.00 | 0.01 | 0.00 | 88 | 1021.2 |
| 20260508100404 | 57 | 0 | 0.0 | 0.0 | 0.00 | 0.01 | 0.00 | 88 | 1021.5 |
| 20260508095904 | 57 | 0 | 0.0 | 0.0 | 0.00 | 0.01 | 0.00 | 88 | 1021.6 |
| 20260508095405 | 57 | 0 | 0.0 | 0.0 | 0.00 | 0.01 | 0.00 | 88 | 1021.6 |
| 20260508094905 | 57 | 0 | 0.0 | 0.0 | 0.00 | 0.01 | 0.00 | 88 | 1021.7 |
| 20260508094404 | 57 | 0 | 0.0 | 0.0 | 0.00 | 0.01 | 0.00 | 88 | 1021.7 |
| 20260508093404 | 57 | 0 | 0.0 | 0.0 | 0.00 | 0.01 | 0.00 | 88 | 1021.8 |
| 20260508092905 | 57 | 0 | 0.0 | 0.0 | 0.00 | 0.01 | 0.00 | 88 | 1021.7 |
| 20260508092405 | 57 | 0 | 0.0 | 0.0 | 0.00 | 0.01 | 0.00 | 88 | 1021.6 |
| 20260508091904 | 57 | 0 | 0.0 | 0.0 | 0.00 | 0.01 | 0.00 | 88 | 1021.6 |
| 20260508091404 | 57 | 0 | 0.0 | 0.0 | 0.00 | 0.01 | 0.00 | 88 | 1021.7 |
| 20260508090904 | 57 | 0 | 0.0 | 0.0 | 0.00 | 0.01 | 0.00 | 88 | 1021.6 |